Regional Weather Roundup
Issued by NWS

Home | Current Version | Previous Version | Graphics & Text | Print | Product List | Glossary On
Versions: 1 2 3 4 5 6 7 8 9 10 11 12 13 14 15 16 17 18 19 20 21 22 23 24 25 26 27 28 29 30 31 32 33 34 35 36 37 38 39 40 41 42 43 44 45 46 47 48 49 50
000
ASUS43 KLOT 202000
RWRIL

ILLINOIS REGIONAL WEATHER ROUNDUP
NATIONAL WEATHER SERVICE CHICAGO/ROMEOVILLE IL
300 PM CDT WED AUG 20 2014

NOTE: "FAIR" INDICATES FEW OR NO CLOUDS BELOW 12,000 FEET WITH NO
SIGNIFICANT WEATHER AND/OR OBSTRUCTIONS TO VISIBILITY.

* THESE STATIONS ARE NOT UNDER NWS QUALITY CONTROL. THEY ALSO MAY NOT
  REPORT WEATHER SUCH AS PRECIPITATION OR FOG.

ILZ001-002-007-009-015-016-024-202100-
NORTHWEST ILLINOIS

CITY           SKY/WX    TMP DP  RH WIND       PRES   REMARKS
MOLINE         CLOUDY    77  70  79 SW8       29.89R
STERLING*      PTSUNNY   82  68  61 S6        29.87F HX  85
$$

ILZ003-004-008-010-011-017-018-202100-
NORTH CENTRAL ILLINOIS

CITY           SKY/WX    TMP DP  RH WIND       PRES   REMARKS
ROCKFORD       CLOUDY    86  65  49 SW7       29.89F HX  88
ROCHELLE*      PTSUNNY   82  66  57 SW6       29.89F HX  84
$$

ILZ005-006-012>014-019>023-202100-
NORTHEAST ILLINOIS

CITY           SKY/WX    TMP DP  RH WIND       PRES   REMARKS
CHICAGO-OHARE  PTSUNNY   84  63  49 SW14      29.88F HX  85
CHICAGO-MIDWAY PTSUNNY   86  66  51 W13       29.88F HX  88
AURORA         PTSUNNY   84  65  52 VRB7      29.89F HX  86
WAUKEGAN       SUNNY     85  65  51 W6        29.87F HX  86
DUPAGE AIRPORT MOSUNNY   85  66  53 SW12      29.89F HX  87
WHEELING       PTSUNNY   86  64  47 W14       29.89F HX  87
NORTHERLY ISL    N/A     84  61  45 W7          N/A  HX  84
$$

LMZ740>746-202100-
SOUTHERN LAKE MICHIGAN

STATION/POSITION SKY/WX   TEMP    WIND        PRES    VSBY  WAVE
                          AIR SEA DIR/SP/G                  HT/PER
                          (F)     (DEG/KT/KT) (MB)    (MI)  (FT/S)
SOUTHERN BUOY              69 69  140/  6/  6 1012.9F         0
WAUKEGAN HARBOR            83     270/ 10/ 14   N/A
HARRISON CRIB              81     230/  8/ 12   N/A
BURNHAM HARBOR             85     260/  6/ 15   N/A
CALUMET HARBOR             84     220/  8/ 14 1011.2F
BURNS HARBOR               82     260/ 10/ 18   N/A
MICHIGAN CITY              78     250/  3/  4   N/A
MICHIGAN CITY 6N           77 75  270/  2/  4   N/A           0
ST. JOSEPH                 75 71  150/  2/  2   N/A           1
$$

ILZ025>027-034>036-040-047-049-050-058-095>099-202100-
WEST-CENTRAL ILLINOIS

CITY           SKY/WX    TMP DP  RH WIND       PRES   REMARKS
QUINCY         CLOUDY    81  71  71 SE8       29.94F HX  85
MACOMB*        CLOUDY    74  71  89 S13       29.95F
$$

ILZ028>032-037-038-041>044-048-051>054-059>061-202100-
CENTRAL ILLINOIS

CITY           SKY/WX    TMP DP  RH WIND       PRES   REMARKS
DECATUR        CLOUDY    75  70  84 SW12      29.98F
PEORIA         CLOUDY    76  67  73 SW10      29.92F
SPRINGFIELD    CLOUDY    80  70  71 S6        29.96F HX  83
TAYLORVILLE    NOT AVBL
$$

ILZ033-039-045-046-055>057-062-063-202100-
EAST-CENTRAL ILLINOIS

CITY           SKY/WX    TMP DP  RH WIND       PRES   REMARKS
CHAMPAIGN      CLOUDY    74  69  85 S6        29.94F
MATTOON        CLOUDY    71  69  93 S8        29.96F
$$

ILZ079-100>102-202100-
SOUTHWEST ILLINOIS

CITY           SKY/WX    TMP DP  RH WIND       PRES   REMARKS
ALTON          PTSUNNY   81  75  83 E12       29.98S HX  86
BELLEVILLE     MOSUNNY   81  72  74 NE13      29.96F HX  85
CAHOKIA*       CLOUDY    83  72  69 SE14      29.96F HX  88
$$

ILZ064>066-069>071-074>076-080>082-084>086-088>090-092>094-202100-
SOUTH-CENTRAL ILLINOIS

CITY           SKY/WX    TMP DP  RH WIND       PRES   REMARKS
CARBONDALE     PTSUNNY   90  73  57 CALM      29.96F HX  98
MT. VERNON     CLOUDY    81  68  65 E6        30.01F HX  83
SALEM*         CLOUDY    81  70  71 E5        30.01S HX  84
$$

ILZ067-068-072-073-078-083-087-091-202100-
SOUTHEAST ILLINOIS

CITY           SKY/WX    TMP DP  RH WIND       PRES   REMARKS
LAWRENCEVILLE  CLOUDY    75  71  87 N7        30.00F
HARRISBURG*    CLOUDY    83  73  72 NE10      30.00F HX  88
ROBINSON*      LGT RAIN  74  72  91 CALM      30.01R
$$

ABBREVIATIONS USED IN REMARKS
   TC - TEMPERATURE IN CELSIUS
  WCI - WIND CHILL INDEX
   HX - HEAT INDEX
  VSB - VISIBILITY
$$




USA.gov is the U.S. government's official web portal to all federal, state and local government web resources and services.